[[{"header":{"parameterUnit":"m.s-1","parameterCategory":1,"la1":30.2991,"la2":30.254,"lo1":-89.0895,"lo2":-89.0444,"dy":0.0017,"dx":0.0017,"nx":28,"ny":28,"refTime":"2024-07-07T03:00:00:Z","depth":0,"parameterNumber":2,"parameterNumberName":"U-component_of_WINDS"},"data":[0,0,0,0,0,0,0,0,0,0,0,0,0,0,0,0,0,0,0,0,0,0,0,0,0,0,0,0,0,0,0,0,0,0,0,0,0,0,0,0,0,0,0,0,0,0,0,0,0,0,0,0,0,0,0,0,0,0,-0.0148,-0.0147,0,-0.0034,-0.0033,-0.0032,0.0021,0.0021,0.002,0.002,0.0137,0.014,0.0143,0,0,0,0,0,0,0,0,0,0,0,0,0,-0.0319,-0.0316,-0.0148,-0.0146,-0.0145,-0.0035,-0.0033,-0.0032,0.0021,0.0021,0.002,0.002,0.0136,0.014,0.0144,0,0,0,0,0,0,0,0,0,0,0,0,0,-0.0229,-0.0315,-0.0148,-0.0106,-0.0101,-0.0035,-0.0033,-0.0031,0.0021,0.0021,0.002,0.002,0.0135,0.0139,0.0144,0.0176,0,0,0.0159,0.0161,0,0,0,0,0,0,0,0,-0.0234,-0.0223,-0.0113,-0.0108,-0.0103,-0.0021,-0.0051,0.0038,0.0021,-0.0025,0.002,0.002,0.0085,0.0094,0.0115,0.0182,0.0187,0.0159,0.0162,0.0164,0.0166,0,0,0,0,0,0,0,-0.0241,-0.0228,-0.0103,-0.0112,-0.0105,-0.0092,-0.008,-0.0034,0.0029,-0.0021,-0.0017,-0.0005,0.0087,0.011,0.0118,0.0189,0.0159,0.0163,0.0166,0.0168,0.0287,0.0288,0,0,0,0,0,0,-0.0254,-0.0233,-0.0107,-0.01,-0.017,-0.0089,-0.0075,-0.0047,0.0029,0.004,-0.0005,-0.0003,0.0102,0.0113,0.0122,0.0165,0.0164,0.0169,0.0171,0.0287,0.0288,0.0288,0,0,0,0,0,0,-0.0258,-0.0243,-0.0111,-0.0165,-0.0147,-0.0086,-0.0055,-0.0045,-0.0022,0.0041,0.0053,0.0007,0.0103,0.0116,0.0163,0.017,0.0171,0.0175,0.0287,0.0287,0.0288,0.0251,0,0,0,0,0,0,-0.0263,-0.0245,-0.0232,-0.0165,-0.0145,-0.0073,-0.0055,-0.0043,-0.0014,-0.001,0.0056,0.0066,0.0103,0.0155,0.0167,0.0177,0.0179,0.0286,0.0287,0.0288,0.0252,0.025,0.0249,0,0,0,0,0,-0.0269,-0.0246,-0.0231,-0.0216,-0.0127,-0.0073,-0.0061,-0.0019,-0.0014,0.0,0.004,0.0064,0.0167,0.0159,0.0174,0.0185,0.0286,0.0287,0.0288,0.0253,0.0251,0.0249,0,0,0,0,0,0,-0.0313,-0.0237,-0.0219,-0.0174,-0.0131,-0.0064,-0.0046,-0.0022,0.0021,0.0023,0.0073,0.0088,0.013,0.0162,0.0152,0.022,0.0229,0.0232,0.0197,0.0196,0.0194,0.0186,0.0183,0,0,0,0,0,-0.0318,-0.028,-0.0215,-0.0182,-0.0161,-0.0107,-0.0082,-0.0053,-0.0006,0.0013,0.0057,0.0103,0.0145,0.0172,0.0215,0.0256,0.0272,0.0271,0.0269,0.0268,0.027,0.0295,0.0295,0.029,0.029,0.029,0,0,-0.0327,-0.028,-0.026,-0.019,-0.0152,-0.0114,-0.0092,-0.0053,-0.0024,0.0019,0.0066,0.01,0.0154,0.0198,0.022,0.0226,0.0275,0.0269,0.0267,0.0271,0.0295,0.0296,0.0296,0.0291,0.029,0.029,0,0,-0.0324,-0.0285,-0.0253,-0.0216,-0.016,-0.0124,-0.0117,-0.0054,-0.003,0.0018,0.0051,0.0086,0.0158,0.0195,0.0223,0.024,0.0263,0.0252,0.0244,0.0267,0.0268,0.0268,0.0274,0.0276,0.0254,0.0254,0.0254,0,-0.0342,-0.0283,-0.0239,-0.0202,-0.0172,-0.0132,-0.0099,-0.0065,0.0002,0.0021,0.0027,0.0119,0.0158,0.0211,0.0215,0.0236,0.0247,0.0245,0.0264,0.0265,0.0266,0.0273,0.0275,0.0253,0.0253,0.0253,0.0253,0,-0.0308,-0.0268,-0.0249,-0.0185,-0.0153,-0.0119,-0.007,-0.0043,-0.0017,0.0017,0.0065,0.0113,0.0166,0.0181,0.0206,0.0238,0.024,0.0254,0.0265,0.0264,0.0271,0.0274,0.025,0.0251,0.0251,0.0252,0,0,-0.0328,-0.0242,-0.0235,-0.0206,-0.0142,-0.011,-0.0073,-0.0022,0.0,0.0045,0.0077,0.0137,0.015,0.0182,0.0212,0.0232,0.0242,0.0244,0.0246,0.0242,0.028,0.0269,0.0271,0.0257,0.0258,0.0258,0.0275,0,-0.0316,-0.0249,-0.0208,-0.0157,-0.012,-0.0082,-0.005,-0.0007,0.0026,0.0062,0.0099,0.0141,0.0155,0.0175,0.0196,0.0236,0.025,0.0235,0.0288,0.0289,0.0274,0.0275,0.0264,0.0277,0.0278,0.0279,0.0279,0,-0.0292,-0.0248,-0.0194,-0.0134,-0.0117,-0.0089,-0.0039,-0.0004,0.0045,0.0068,0.0103,0.0133,0.0173,0.0179,0.0234,0.0223,0.0247,0.027,0.0271,0.0279,0.0284,0.0282,0.0283,0.0285,0.0283,0.0283,0.0283,0,-0.0312,-0.024,-0.0198,-0.0174,-0.0103,-0.0085,-0.0054,-0.0005,0.0023,0.0067,0.0086,0.0134,0.016,0.0196,0.0238,0.0239,0.029,0.03,0.031,0.0309,0.032,0.0319,0.0324,0.0334,0.0334,0.0334,0.0334,0,-0.0302,-0.027,-0.0206,-0.018,-0.0143,-0.0098,-0.0063,-0.0029,0.0014,0.0047,0.0083,0.0113,0.0166,0.0203,0.0236,0.0277,0.0288,0.0308,0.0316,0.0305,0.0303,0.0322,0.0322,0.0334,0.0334,0.0334,0.0334,0,-0.0318,-0.0274,-0.0225,-0.0162,-0.0146,-0.0121,-0.0068,-0.0041,-0.0007,0.0035,0.0047,0.0101,0.0146,0.0191,0.0252,0.0274,0.0315,0.0326,0.0298,0.0303,0.0311,0.031,0.033,0.0335,0.034,0.034,0.034,0,-0.0314,-0.0288,-0.0223,-0.0198,-0.0169,-0.013,-0.0101,-0.0055,-0.0027,0.0031,0.005,0.0098,0.0138,0.0208,0.0253,0.03,0.0313,0.0317,0.032,0.0308,0.0313,0.0312,0.0314,0.0315,0.0315,0.0315,0.0314,0,-0.0312,-0.0291,-0.0251,-0.0203,-0.017,-0.013,-0.0089,-0.0071,-0.0017,0.0013,0.0059,0.0091,0.0152,0.0199,0.0251,0.0282,0.0307,0.0313,0.0318,0.0307,0.029,0.03,0.0294,0.0312,0.0313,0.0313,0.0313,0.0313,-0.0317,-0.0293,-0.0243,-0.0199,-0.0164,-0.0126,-0.0098,-0.0061,-0.0021,0.0032,0.0057,0.0103,0.0151,0.0223,0.0254,0.0291,0.0298,0.0305,0.0307,0.0308,0.0306,0.0283,0.0301,0.0301,0.0301,0.0301,0.0301,0,-0.0313,-0.0279,-0.0239,-0.0183,-0.0149,-0.0129,-0.0082,-0.0055,-0.0015,0.0028,0.0067,0.012,0.0165,0.0213,0.0261,0.0282,0.0295,0.0293,0.0292,0.0299,0.0297,0.0288,0.0282,0.0282,0.0282,0.0282,0.0282,0.0282,-0.0306,-0.0264,-0.0238,-0.0178,-0.0144,-0.0098,-0.0074,-0.0039,-0.0005,0.0053,0.0091,0.0121,0.0166,0.0218,0.026,0.0273,0.029,0.0285,0.0301,0.0298,0.0299,0.0301,0.0293,0.0288,0.0288,0.0301,0.0301,0.0301]},{"header":{"parameterUnit":"m.s-1","parameterCategory":1,"la1":30.2991,"la2":30.254,"lo1":-89.0895,"lo2":-89.0444,"dy":0.0017,"dx":0.0017,"nx":28,"ny":28,"refTime":"2024-07-07T03:00:00:Z","depth":0,"parameterNumber":3,"parameterNumberName":"V-component_of_WINDS"},"data":[0,0,0,0,0,0,0,0,0,0,0,0,0,0,0,0,0,0,0,0,0,0,0,0,0,0,0,0,0,0,0,0,0,0,0,0,0,0,0,0,0,0,0,0,0,0,0,0,0,0,0,0,0,0,0,0,0,0,4.1831,4.1831,0,4.1816,4.1816,4.1816,4.177,4.1769,4.1768,4.1767,4.1753,4.1753,4.1754,0,0,0,0,0,0,0,0,0,0,0,0,0,4.1821,4.1821,4.1831,4.1831,4.1831,4.1816,4.1816,4.1816,4.177,4.1769,4.1768,4.1766,4.1753,4.1753,4.1754,0,0,0,0,0,0,0,0,0,0,0,0,0,4.1818,4.1821,4.1831,4.1806,4.1804,4.1816,4.1816,4.1816,4.177,4.1769,4.1767,4.1766,4.1752,4.1753,4.1754,4.179,0,0,4.1757,4.1757,0,0,0,0,0,0,0,0,4.1818,4.1818,4.181,4.1808,4.1805,4.1793,4.1807,4.1807,4.1771,4.1783,4.1767,4.1765,4.1768,4.1767,4.1768,4.1789,4.1789,4.1757,4.1757,4.1758,4.1758,0,0,0,0,0,0,0,4.1818,4.1818,4.1825,4.181,4.1807,4.1796,4.1794,4.1807,4.1784,4.1782,4.1778,4.1777,4.1766,4.1767,4.1767,4.1789,4.1757,4.1758,4.1758,4.1759,4.1839,4.1841,0,0,0,0,0,0,4.1822,4.1819,4.1826,4.1825,4.1808,4.1797,4.1795,4.1799,4.1784,4.178,4.1779,4.1775,4.1766,4.1766,4.1766,4.1808,4.1758,4.1759,4.1759,4.1838,4.184,4.1842,0,0,0,0,0,0,4.1822,4.1823,4.1826,4.1821,4.182,4.1799,4.1804,4.1799,4.18,4.1781,4.1777,4.1784,4.1765,4.1765,4.1785,4.1806,4.1759,4.176,4.1836,4.1838,4.1841,4.189,0,0,0,0,0,0,4.1822,4.1823,4.1836,4.1821,4.1821,4.1844,4.1805,4.18,4.1802,4.1797,4.1785,4.1782,4.1764,4.1784,4.1785,4.1807,4.176,4.1834,4.1837,4.184,4.1887,4.1894,4.1901,0,0,0,0,0,4.1821,4.1851,4.1837,4.1838,4.1837,4.1846,4.1845,4.1824,4.1804,4.1817,4.1805,4.1782,4.1804,4.1786,4.1788,4.181,4.1832,4.1836,4.184,4.1884,4.1893,4.19,0,0,0,0,0,0,4.1869,4.1848,4.1833,4.1858,4.1854,4.1838,4.1854,4.1834,4.1836,4.1832,4.1805,4.1803,4.1826,4.182,4.18,4.1844,4.1814,4.1819,4.1847,4.1856,4.1863,4.1864,4.1761,0,0,0,0,0,4.1882,4.1891,4.1873,4.1897,4.1896,4.1875,4.1878,4.1862,4.1857,4.1855,4.1844,4.184,4.1846,4.1851,4.1855,4.1886,4.1883,4.1902,4.1909,4.1915,4.1918,4.1934,4.1943,4.1854,4.1854,4.1853,0,0,4.191,4.19,4.1907,4.1906,4.1901,4.1911,4.1874,4.1886,4.1893,4.1857,4.1874,4.1867,4.186,4.1886,4.1896,4.1881,4.1942,4.1919,4.1924,4.1925,4.1939,4.1948,4.1955,4.1856,4.1856,4.1855,0,0,4.1966,4.1959,4.1979,4.1974,4.1967,4.1953,4.1958,4.1945,4.1938,4.1955,4.1928,4.1937,4.1947,4.1944,4.1944,4.1999,4.1978,4.2001,4.2038,4.2053,4.206,4.2067,4.2086,4.2094,4.2005,4.2005,4.2005,0,4.2002,4.2015,4.1991,4.2005,4.2006,4.1973,4.1993,4.199,4.1984,4.1986,4.1969,4.1982,4.1975,4.1999,4.2013,4.2014,4.2019,4.2002,4.2061,4.2067,4.2073,4.2091,4.2099,4.2008,4.2008,4.2007,4.2007,0,4.2059,4.2069,4.2086,4.2081,4.2083,4.21,4.208,4.2085,4.2069,4.2058,4.2076,4.2067,4.2069,4.2074,4.2058,4.2096,4.2086,4.2066,4.2036,4.2084,4.2101,4.2108,4.2012,4.2011,4.201,4.2009,0,0,4.2144,4.2126,4.2133,4.213,4.212,4.2127,4.2143,4.2144,4.215,4.2147,4.216,4.217,4.2151,4.2151,4.2135,4.2149,4.2193,4.2126,4.2126,4.2139,4.2234,4.225,4.2259,4.2179,4.2181,4.2182,4.2235,0,4.2197,4.2222,4.2201,4.223,4.2239,4.2209,4.2222,4.2218,4.2208,4.2214,4.2203,4.221,4.2184,4.2184,4.2196,4.2185,4.2212,4.2181,4.2191,4.2192,4.2194,4.2267,4.2284,4.2334,4.2241,4.2243,4.2243,0,4.2262,4.2262,4.2292,4.228,4.2283,4.2295,4.2295,4.2302,4.2296,4.2288,4.2288,4.2268,4.2283,4.2253,4.2274,4.2253,4.2256,4.2252,4.2253,4.2253,4.2221,4.227,4.235,4.2358,4.2254,4.2253,4.2252,0,4.2321,4.2328,4.2347,4.2346,4.2333,4.2342,4.2337,4.233,4.2332,4.2333,4.2334,4.2336,4.2338,4.234,4.2322,4.2302,4.2345,4.2314,4.2339,4.2339,4.2349,4.2348,4.2431,4.2351,4.2351,4.2351,4.2351,0,4.2382,4.2401,4.2374,4.2385,4.2407,4.2383,4.2405,4.2397,4.239,4.24,4.2374,4.2384,4.2359,4.2367,4.2353,4.2372,4.2373,4.2367,4.2363,4.2369,4.237,4.237,4.2367,4.2353,4.2352,4.2352,4.2352,0,4.2451,4.2433,4.2452,4.2438,4.2434,4.2451,4.2439,4.2449,4.2437,4.245,4.2452,4.2433,4.2441,4.2423,4.2428,4.2418,4.2446,4.2436,4.2447,4.2444,4.247,4.2468,4.2556,4.2567,4.248,4.2481,4.2482,0,4.2491,4.2506,4.2493,4.2497,4.2493,4.2501,4.2504,4.2481,4.2485,4.248,4.2491,4.2496,4.2499,4.2513,4.25,4.2504,4.2494,4.2525,4.2495,4.2501,4.2495,4.2494,4.2496,4.2531,4.2532,4.2533,4.2534,0,4.2564,4.2555,4.2559,4.2561,4.2564,4.2565,4.2563,4.2568,4.2545,4.255,4.2557,4.256,4.2565,4.2571,4.2571,4.2566,4.2547,4.2543,4.2549,4.2556,4.2562,4.2559,4.2464,4.2541,4.2541,4.254,4.254,4.2539,4.262,4.2632,4.2625,4.263,4.2627,4.2626,4.2635,4.2624,4.263,4.2632,4.2619,4.2629,4.2623,4.2622,4.262,4.2628,4.2614,4.2622,4.2624,4.2627,4.2631,4.2561,4.2628,4.2627,4.2627,4.2627,4.2627,0,4.2692,4.2686,4.2692,4.269,4.2695,4.2675,4.2673,4.2678,4.2687,4.2684,4.2687,4.2696,4.2701,4.2689,4.2693,4.2702,4.2693,4.2703,4.2703,4.2702,4.2643,4.2638,4.2711,4.2711,4.2711,4.2711,4.2711,4.2711,4.273,4.2749,4.2738,4.2755,4.2749,4.2758,4.2758,4.2758,4.2755,4.2765,4.277,4.2762,4.2755,4.2758,4.2762,4.2758,4.2761,4.2775,4.2769,4.2714,4.2706,4.2698,4.2693,4.2776,4.2776,4.2826,4.2827,4.2827]}]]